This is the latest recevied weather packets stored in our database for station/object WB4ZUT. If no packets are shown the sender has not sent any weather packets the latest 10 day(s).
| Time | Temp. | Humidity | Pressure | Rain* | Wind** | Luminosity | Snow |
|---|---|---|---|---|---|---|---|
| 1777743159 | 10.56° C | 85% | 1019.4 hPa | 0 mm | - | 255 W/m² | - |
| 1777742857 | 10.56° C | 85% | 1019.1 hPa | 0 mm | - | 219 W/m² | - |
| 1777742553 | 11.11° C | 84% | 1019.5 hPa | 0 mm | - | 229 W/m² | - |
| 1777742249 | 10.56° C | 83% | 1019.2 hPa | 0 mm | - | 261 W/m² | - |
| 1777741946 | 11.11° C | 83% | 1019.4 hPa | 0 mm | - | 248 W/m² | - |
| 1777741643 | 10.56° C | 82% | 1019.6 hPa | 0 mm | - | 233 W/m² | - |
| 1777741340 | 10.56° C | 82% | 1019.6 hPa | 0 mm | - | 251 W/m² | - |
| 1777741036 | 10.56° C | 84% | 1019.5 hPa | 0 mm | - | 221 W/m² | - |
| 1777740733 | 10° C | 84% | 1019.6 hPa | 0 mm | - | 218 W/m² | - |
| 1777740429 | 10° C | 84% | 1019.3 hPa | 0 mm | - | 168 W/m² | - |
| 1777740127 | 10° C | 83% | 1019.5 hPa | 0 mm | - | 128 W/m² | - |
| 1777739822 | 10° C | 84% | 1019.4 hPa | 0 mm | - | 117 W/m² | - |
| 1777739519 | 10° C | 83% | 1019.3 hPa | 0 mm | - | 110 W/m² | - |
| 1777739216 | 10° C | 84% | 1019.4 hPa | 0 mm | - | 108 W/m² | - |
| 1777738913 | 10° C | 86% | 1019.6 hPa | 0 mm | - | 109 W/m² | - |
| 1777738610 | 10° C | 86% | 1019.4 hPa | 0 mm | - | 123 W/m² | - |
| 1777738307 | 10° C | 86% | 1019.6 hPa | 0 mm | - | 134 W/m² | - |
| 1777738005 | 10° C | 87% | 1019.3 hPa | 0 mm | - | 138 W/m² | - |
| 1777737704 | 10° C | 87% | 1019.2 hPa | 0 mm | - | 153 W/m² | - |
| 1777737401 | 10° C | 87% | 1019.4 hPa | 0 mm | - | 166 W/m² | - |
| 1777737098 | 10° C | 86% | 1019.3 hPa | 0 mm | - | 187 W/m² | - |
| 1777736794 | 9.44° C | 87% | 1019.4 hPa | 0 mm | - | 164 W/m² | - |
| 1777736172 | 9.44° C | 87% | 1019.5 hPa | 0 mm | - | 117 W/m² | - |
| 1777735869 | 9.44° C | 86% | 1019.2 hPa | 0 mm | - | 78 W/m² | - |
| 1777735566 | 9.44° C | 85% | 1019.4 hPa | 0 mm | - | 66 W/m² | - |
* Rain latest hour (hover to see other rain measurements)
** Current wind speed in m/s (hover to see current wind gust speed)